Weather History for Columbia Airport, CA

Change the Weather History Date:

Tuesday, May 6, 2014

  Actual Average (KMOD) Record (KMOD)
Temperature  
Mean Temperature 50 °F -  
Max Temperature 57 °F 81 °F 100 °F (1987)
Min Temperature 42 °F 53 °F 37 °F (1933)
Degree Days  
Heating Degree Days 14 2  
Month to date heating degree days 12  
Since 1 July heating degree days 2146  
Cooling Degree Days 0 4  
Month to date cooling degree days 19  
Year to date cooling degree days 63  
Moisture  
Dew Point 45 °F    
Average Humidity 79    
Maximum Humidity 100    
Minimum Humidity 55    
Precipitation  
Precipitation 0.12 in 0.03 in 0.91 in (1994)
Month to date precipitation 0.16  
Year to date precipitation 8.16  
Since 1 July precipitation 12.52  
Snow  
Snow 0.00 in - - ()
Month to date snowfall  
Since 1 July snowfall  
Snow Depth -    
Sea Level Pressure  
Sea Level Pressure 29.87 in    
Wind  
Wind Speed 2 mph (West)    
Max Wind Speed 9 mph    
Max Gust Speed 16 mph    
Visibility 10 miles    
Events      
T = Trace of Precipitation, MM = Missing Value Source: NWS Daily Summary

Daily Weather History Graph

Daily Weather History Graph

Search for Another Location

Airport:

Trip Planner

Search our weather history database for the weather conditions in past years. The results will help you decide how hot, cold, wet, or windy it might be!

Date:

Astronomy

May. 06, 2014 Rise Set
Actual Time 5:59 AM PDT 7:57 PM PDT
Civil Twilight 5:31 AM PDT 8:26 PM PDT
Nautical Twilight 4:56 AM PDT 9:01 PM PDT
Astronomical Twilight 4:18 AM PDT 9:39 PM PDT
Moon 12:19 PM PDT (5/6) 1:20 AM PDT (5/6)
Length of Visible Light 14h 55m
Length of Day
13h 57m
Waxing Crescent, 47% of the Moon is Illuminated
May 6
Waxing Crescent
May 6
First Quarter
May 14
Full
May 21
Last Quarter
May 28
New

Hourly Weather History & Observations

Time (PDT) Temp. Windchill Dew Point Humidity Pressure Visibility Wind Dir Wind Speed Gust Speed Precip Events Conditions
12:15 AM 44.6 °F - 37.4 °F 76% 29.87 in 10.0 mi Calm Calm - N/A   Clear
12:35 AM 44.6 °F - 37.4 °F 76% 29.85 in 10.0 mi Calm Calm - N/A   Clear
4:35 AM 46.4 °F - 41.0 °F 81% 29.85 in 10.0 mi Calm Calm - N/A   Mostly Cloudy
4:55 AM 46.4 °F - 41.0 °F 81% 29.85 in 10.0 mi Calm Calm - N/A   Overcast
5:15 AM 46.4 °F - 41.0 °F 81% 29.85 in 10.0 mi Calm Calm - N/A   Overcast
5:35 AM 46.4 °F - 41.0 °F 81% 29.86 in 10.0 mi Calm Calm - N/A   Overcast
5:55 AM 46.4 °F - 41.0 °F 81% 29.86 in 10.0 mi Calm Calm - N/A   Overcast
6:55 AM 46.4 °F - 42.8 °F 87% 29.88 in 10.0 mi Calm Calm - N/A   Overcast
7:15 AM 46.4 °F 45.2 °F 42.8 °F 87% 29.88 in 10.0 mi WSW 3.5 mph - N/A   Overcast
7:35 AM 46.4 °F 45.2 °F 44.6 °F 93% 29.88 in 10.0 mi NW 3.5 mph - N/A   Overcast
7:55 AM 48.2 °F - 44.6 °F 87% 29.88 in 10.0 mi West 4.6 mph - N/A   Overcast
8:15 AM 48.2 °F - 42.8 °F 82% 29.87 in 10.0 mi North 3.5 mph - N/A   Overcast
8:35 AM 50.0 °F - 42.8 °F 76% 29.87 in 10.0 mi NNW 3.5 mph - N/A   Mostly Cloudy
8:55 AM 51.8 °F - 42.8 °F 71% 29.87 in 10.0 mi WSW 5.8 mph - N/A   Mostly Cloudy
9:15 AM 53.6 °F - 42.8 °F 67% 29.87 in 10.0 mi SW 6.9 mph - N/A   Mostly Cloudy
9:35 AM 55.4 °F - 42.8 °F 63% 29.87 in 10.0 mi SW 6.9 mph - N/A   Mostly Cloudy
9:55 AM 55.4 °F - 44.6 °F 67% 29.87 in 10.0 mi West 8.1 mph - N/A   Mostly Cloudy
10:15 AM 57.2 °F - 42.8 °F 59% 29.87 in 10.0 mi SW 4.6 mph - N/A   Scattered Clouds
10:35 AM 53.6 °F - 41.0 °F 62% 29.87 in 10.0 mi SW 3.5 mph - N/A   Scattered Clouds
11:15 AM 57.2 °F - 44.6 °F 63% 29.87 in 10.0 mi WSW 6.9 mph - N/A   Overcast
11:35 AM 57.2 °F - 41.0 °F 55% 29.86 in 10.0 mi South 6.9 mph - N/A   Mostly Cloudy
11:55 AM 57.2 °F - 41.0 °F 55% 29.86 in 10.0 mi SSW 6.9 mph 16.1 mph N/A   Overcast
12:15 PM 57.2 °F - 41.0 °F 55% 29.86 in 10.0 mi SW 9.2 mph - N/A   Overcast
12:35 PM 57.2 °F - 44.6 °F 63% 29.86 in 10.0 mi SSW 8.1 mph 16.1 mph N/A   Mostly Cloudy
12:55 PM 55.4 °F - 42.8 °F 63% 29.86 in 10.0 mi South 5.8 mph - N/A   Overcast
1:15 PM 55.4 °F - 42.8 °F 63% 29.86 in 10.0 mi SW 5.8 mph - N/A   Overcast
1:35 PM 53.6 °F - 42.8 °F 67% 29.87 in 10.0 mi NE 5.8 mph - N/A   Overcast
1:55 PM 50.0 °F - 46.4 °F 87% 29.88 in 4.0 mi ESE 3.5 mph - 0.01 in   Overcast
2:15 PM 48.2 °F - 46.4 °F 93% 29.88 in 2.5 mi Calm Calm - 0.06 in   Unknown
2:35 PM 48.2 °F - 46.4 °F 93% 29.88 in 2.5 mi Calm Calm - 0.11 in   Mostly Cloudy
2:55 PM 50.0 °F - 48.2 °F 94% 29.87 in 4.0 mi Calm Calm - 0.11 in   Partly Cloudy
3:15 PM 51.8 °F - 48.2 °F 88% 29.87 in 10.0 mi Calm Calm - N/A   Scattered Clouds
3:35 PM 50.0 °F - 48.2 °F 94% 29.87 in - Calm Calm - N/A   Unknown
3:55 PM 51.8 °F - 48.2 °F 88% 29.87 in 10.0 mi Calm Calm - N/A   Clear
4:15 PM 53.6 °F - 50.0 °F 88% 29.86 in 10.0 mi Calm Calm - N/A   Clear
4:35 PM 53.6 °F - 48.2 °F 82% 29.86 in 10.0 mi Calm Calm - N/A   Clear
4:55 PM 55.4 °F - 48.2 °F 77% 29.85 in 10.0 mi North 3.5 mph - N/A   Clear
5:15 PM 55.4 °F - 48.2 °F 77% 29.85 in 10.0 mi NW 4.6 mph - N/A   Clear
5:35 PM 57.2 °F - 46.4 °F 67% 29.84 in 10.0 mi NNE 6.9 mph - N/A   Partly Cloudy
5:55 PM 57.2 °F - 48.2 °F 72% 29.84 in 10.0 mi NW 3.5 mph - N/A   Partly Cloudy
6:15 PM 57.2 °F - 46.4 °F 67% 29.84 in 10.0 mi North 4.6 mph - N/A   Partly Cloudy
6:35 PM 57.2 °F - 48.2 °F 72% 29.84 in 10.0 mi NW 3.5 mph - N/A   Partly Cloudy
6:55 PM 55.4 °F - 48.2 °F 77% 29.84 in 10.0 mi Calm Calm - N/A   Clear
7:15 PM 53.6 °F - 48.2 °F 82% 29.85 in 10.0 mi NW 3.5 mph - N/A   Clear
7:35 PM 51.8 °F - 48.2 °F 88% 29.85 in 10.0 mi Calm Calm - N/A   Scattered Clouds
7:55 PM 51.8 °F - 48.2 °F 88% 29.86 in 10.0 mi West 3.5 mph - N/A   Mostly Cloudy
8:35 PM 51.8 °F - 48.2 °F 88% 29.88 in 10.0 mi NW 4.6 mph - N/A   Overcast
8:55 PM 51.8 °F - 46.4 °F 82% 29.87 in 10.0 mi Calm Calm - N/A   Overcast
9:15 PM 50.0 °F - 46.4 °F 87% 29.88 in 10.0 mi Calm Calm - N/A   Scattered Clouds
9:35 PM 48.2 °F - 46.4 °F 93% 29.88 in 10.0 mi Calm Calm - N/A   Clear
9:55 PM 46.4 °F - 44.6 °F 93% 29.89 in 10.0 mi Calm Calm - N/A   Clear
10:15 PM 46.4 °F - 44.6 °F 93% 29.89 in 10.0 mi Calm Calm - N/A   Partly Cloudy
10:35 PM 44.6 °F - 44.6 °F 100% 29.89 in 10.0 mi Calm Calm - N/A   Clear
10:55 PM 44.6 °F - 42.8 °F 93% 29.88 in 10.0 mi Calm Calm - N/A   Clear
11:15 PM 44.6 °F - 42.8 °F 93% 29.88 in 10.0 mi Calm Calm - N/A   Clear
11:35 PM 44.6 °F - 42.8 °F 93% 29.88 in 10.0 mi Calm Calm - N/A   Clear
11:55 PM 42.8 °F - 41.0 °F 93% 29.88 in 10.0 mi Calm Calm - N/A   Clear